Date_and_time,latitude,longitude,wind_speed,RelWindDirFrom,WindDirFrom,air_pressure,air_temperature,relative_humidity,Temp,platform_speed_wrt_ground,air_pressure_at_mean_sea_level,platform_orientation
2018-05-25 23:50,50.6304483333333,-96.9807633333333,6.1,8.5,302,974.29,18.5,92,12.49,0.0,1000.07,0.0
2018-05-26 00:00,50.6304466666667,-96.98076,9.7,20.3,241,975.37,18.3,94,12.43,0.0,1001.19,360.0
2018-05-26 00:10,50.6304466666667,-96.9807633333333,13.0,22.3,225,975.87,18.3,99,12.81,0.0,1001.71,360.0
2018-05-26 00:20,50.6304433333333,-96.9807616666667,7.4,10.9,230,975.46,18.0,100,13.64,0.0,1001.31,360.0
2018-05-26 00:30,50.6304483333333,-96.9807633333333,4.0,8.9,269,974.82,17.9,100,13.80,0.0,1000.64,360.0
2018-05-26 00:40,50.6304483333333,-96.980765,4.0,6.0,322,974.27,18.0,100,13.73,0.0,1000.08,360.0
2018-05-26 00:50,50.63045,-96.9807666666667,4.8,8.3,16,973.59,17.9,101,13.83,0.0,999.39,360.0
2018-05-26 01:00,50.63045,-96.9807666666667,10.6,12.5,35,972.47,16.9,101,14.06,0.0,998.27,345.5
2018-05-26 01:10,50.63045,-96.9807666666667,10.3,13.0,61,972.15,16.0,102,13.77,0.0,997.98,345.5
2018-05-26 01:20,50.63044,-96.9807533333333,7.7,11.8,81,972.37,15.8,101,12.93,0.0,998.20,345.5
2018-05-26 01:30,50.6304533333333,-96.9807583333333,10.7,15.5,67,972.31,15.9,101,12.23,0.0,998.11,345.5
2018-05-26 01:40,50.6304483333333,-96.980755,12.2,14.5,62,972.20,16.8,100,12.03,0.0,997.94,345.5
2018-05-26 01:50,50.630445,-96.9807566666667,4.9,15.7,325,972.86,16.5,100,12.44,0.0,998.64,345.5
2018-05-26 02:00,50.630455,-96.98081,7.7,12.6,292,973.54,17.3,100,12.02,0.0,999.30,287.3
2018-05-26 02:10,50.6304366666667,-96.98076,6.0,8.3,250,973.73,17.5,100,12.50,0.0,999.50,287.3
2018-05-26 02:20,50.63044,-96.9807566666667,5.6,8.1,251,973.60,17.4,101,13.11,0.0,999.38,287.3
2018-05-26 02:30,50.630435,-96.980745,7.6,10.9,261,973.46,17.5,101,11.91,0.0,999.22,287.3
2018-05-26 02:40,50.6304383333333,-96.980745,7.3,10.0,254,973.65,17.4,101,12.12,0.0,999.43,287.3
2018-05-26 02:50,50.6304366666667,-96.9807383333333,5.5,8.6,271,973.93,17.3,101,13.22,0.0,999.77,287.3
2018-05-26 03:00,50.6304383333333,-96.98074,3.6,6.9,295,973.93,17.3,101,12.48,0.0,999.81,119.2
2018-05-26 03:10,50.63044,-96.9807433333333,3.5,5.9,303,973.93,17.4,101,12.71,0.0,999.81,119.2
2018-05-26 03:20,50.6304416666667,-96.9807466666667,3.9,5.1,277,973.99,17.4,101,13.71,0.0,999.86,119.2
2018-05-26 03:30,50.6304433333333,-96.9807483333333,6.3,8.7,260,974.04,17.2,101,13.86,0.0,999.88,119.2
2018-05-26 03:40,50.6304583333333,-96.98077,4.7,7.2,267,974.05,17.1,102,13.75,0.0,999.91,119.2
2018-05-26 03:50,50.6304533333333,-96.9807533333333,4.3,6.4,259,974.12,17.0,102,12.68,0.0,999.95,119.2
2018-05-26 04:00,50.6304516666667,-96.980735,2.7,4.5,260,974.14,17.1,102,12.18,0.0,999.96,90.0
2018-05-26 04:10,50.6304433333333,-96.98076,3.9,5.9,267,974.22,17.0,102,12.30,0.0,1000.06,90.0
2018-05-26 04:20,50.6304466666667,-96.980755,4.0,5.4,271,974.28,17.0,102,12.22,0.0,1000.10,90.0
2018-05-26 04:30,50.6304433333333,-96.9807733333333,2.7,4.3,287,974.29,17.0,102,12.19,0.0,1000.13,90.0
2018-05-26 04:40,50.6304416666667,-96.98076,3.6,5.1,267,974.41,16.9,102,11.93,0.0,1000.25,90.0
2018-05-26 04:50,50.63044,-96.9807516666667,3.6,5.8,268,974.46,16.8,102,12.49,0.0,1000.31,90.0
2018-05-26 05:00,50.6304416666667,-96.9807516666667,3.7,5.3,277,974.43,16.8,102,12.62,0.0,1000.27,105.5
2018-05-26 05:10,50.6304416666667,-96.9807516666667,3.5,5.1,275,974.47,16.8,102,11.93,0.0,1000.32,105.5
2018-05-26 05:20,50.6304416666667,-96.9807616666667,4.3,5.9,289,974.47,16.8,102,12.38,0.0,1000.32,105.5
2018-05-26 05:30,50.6304516666667,-96.9807666666667,4.0,5.5,294,974.50,16.7,102,12.58,0.0,1000.37,105.5
2018-05-26 05:40,50.63045,-96.9807633333333,2.5,4.9,308,974.53,16.6,103,12.38,0.0,1000.41,105.5
2018-05-26 05:50,50.63043,-96.9807283333333,1.8,3.3,332,974.58,16.2,103,11.94,0.0,1000.47,105.5
2018-05-26 06:00,50.6304416666667,-96.9807516666667,1.5,2.3,325,974.62,16.2,103,12.63,0.0,1000.52,270.0
2018-05-26 06:10,50.6304433333333,-96.9807533333333,0.4,1.8,325,974.62,16.1,103,12.96,0.0,1000.52,270.0
2018-05-26 06:20,50.630445,-96.980755,0.7,1.4,237,974.68,15.5,103,12.20,0.0,1000.61,270.0
2018-05-26 06:30,50.6304466666667,-96.9807566666667,0.7,2.6,253,974.66,15.3,103,12.05,0.0,1000.61,270.0
2018-05-26 06:40,50.6304466666667,-96.9807483333333,1.5,3.2,299,974.70,15.2,104,12.37,0.0,1000.65,270.0
2018-05-26 06:50,50.6304483333333,-96.9807616666667,3.1,4.6,277,974.83,15.3,104,12.18,0.0,1000.78,270.0
2018-05-26 07:00,50.630435,-96.9807633333333,3.5,5.1,317,974.72,15.5,104,11.74,0.0,1000.66,223.0
2018-05-26 07:10,50.6304366666667,-96.9807583333333,3.7,6.2,325,974.60,15.4,104,11.45,0.0,1000.54,223.0
2018-05-26 07:20,50.6304433333333,-96.980755,4.0,5.9,317,974.66,15.6,104,11.81,0.0,1000.60,223.0
2018-05-26 07:30,50.6304416666667,-96.980755,3.1,5.9,296,974.81,15.6,104,11.84,0.0,1000.75,223.0
2018-05-26 07:40,50.6304416666667,-96.98076,4.0,6.3,298,974.79,15.5,104,11.48,0.0,1000.76,223.0
2018-05-26 07:50,50.630445,-96.9807566666667,4.9,6.5,289,974.79,15.3,104,11.11,0.0,1000.77,223.0
2018-05-26 08:00,50.63044,-96.9807433333333,4.6,6.5,292,974.74,15.2,104,11.84,0.0,1000.73,90.0
2018-05-26 08:10,50.6304433333333,-96.9807483333333,4.9,7.2,295,974.79,15.0,104,12.60,0.0,1000.82,90.0
2018-05-26 08:20,50.630425,-96.980745,4.8,6.4,294,974.85,14.8,104,12.00,0.0,1000.89,90.0
2018-05-26 08:30,50.6304383333333,-96.9807466666667,4.8,7.0,314,974.74,14.8,104,11.54,0.0,1000.79,90.0
2018-05-26 08:40,50.63044,-96.9807533333333,3.9,5.9,308,974.78,14.8,104,12.21,0.0,1000.82,90.0
2018-05-26 08:50,50.630445,-96.980755,5.2,8.2,296,974.94,14.7,104,12.53,0.0,1000.98,90.0
2018-05-26 09:00,50.6304433333333,-96.9807533333333,5.6,8.2,294,974.97,14.6,104,12.27,0.0,1001.02,0.0
2018-05-26 09:10,50.6304466666667,-96.9807433333333,5.3,8.6,296,974.97,14.6,104,11.67,0.0,1001.02,0.0
2018-05-26 09:20,50.630415,-96.9807266666667,5.2,7.9,304,974.92,14.5,104,11.95,0.0,1000.97,0.0
2018-05-26 09:30,50.6304333333333,-96.9807533333333,5.4,7.8,306,974.97,14.5,104,12.22,0.0,1001.02,0.0
2018-05-26 09:40,50.630435,-96.9807466666667,5.8,7.9,297,975.06,14.5,104,11.66,0.0,1001.13,0.0
2018-05-26 09:50,50.6304366666667,-96.980755,4.5,6.2,282,975.22,14.2,104,11.75,0.0,1001.31,0.0
2018-05-26 10:00,50.63044,-96.9807516666667,4.4,7.0,284,975.33,14.0,104,12.14,0.0,1001.44,54.7
2018-05-26 10:10,50.6304416666667,-96.980755,4.2,6.2,282,975.37,13.7,104,12.15,0.0,1001.50,54.7
2018-05-26 10:20,50.63044,-96.9807533333333,4.1,6.4,301,975.40,13.6,104,12.09,0.0,1001.53,54.7
2018-05-26 10:30,50.63044,-96.9807533333333,3.2,5.3,304,975.51,13.7,104,11.87,0.0,1001.65,54.7
2018-05-26 10:40,50.63044,-96.9807533333333,3.9,5.4,265,975.69,13.6,104,11.67,0.0,1001.83,54.7
2018-05-26 10:50,50.63044,-96.9807516666667,4.3,6.2,257,975.77,13.4,104,11.58,0.0,1001.93,54.7
2018-05-26 11:00,50.63044,-96.9807516666667,4.3,5.9,261,975.89,13.4,105,11.44,0.0,1002.06,270.0
2018-05-26 11:10,50.6304416666667,-96.9807533333333,4.1,6.6,275,976.07,13.4,105,11.38,0.0,1002.25,270.0
2018-05-26 11:20,50.6304416666667,-96.9807533333333,4.3,6.4,278,976.09,13.6,105,11.41,0.0,1002.26,270.0
2018-05-26 11:30,50.6304433333333,-96.9807416666667,4.7,6.5,288,976.13,13.6,106,11.69,0.0,1002.30,270.0
2018-05-26 11:40,50.6304416666667,-96.98075,3.9,5.3,279,976.21,13.6,106,11.95,0.0,1002.39,270.0
2018-05-26 11:50,50.630445,-96.980755,3.5,5.6,275,976.35,13.7,106,12.03,0.0,1002.55,270.0
2018-05-26 12:00,50.6304466666667,-96.98076,3.0,4.6,312,976.25,13.9,107,12.03,0.0,1002.45,347.4
2018-05-26 12:10,50.630445,-96.9807616666667,3.8,5.1,320,976.20,14.0,107,11.96,0.0,1002.39,347.4
2018-05-26 12:20,50.630445,-96.9807616666667,4.2,6.1,320,976.20,14.2,107,11.68,0.0,1002.39,347.4
2018-05-26 12:30,50.630445,-96.98076,4.2,7.0,317,976.34,14.6,108,11.84,0.0,1002.51,347.4
2018-05-26 12:40,50.630445,-96.9807583333333,4.2,6.2,317,976.44,14.8,108,11.59,0.0,1002.61,347.4
2018-05-26 12:50,50.630445,-96.9807583333333,4.3,6.9,310,976.56,14.9,108,11.50,0.0,1002.74,347.4
2018-05-26 13:00,50.630445,-96.9807583333333,4.5,6.4,306,976.67,15.0,108,11.62,0.0,1002.84,270.0
2018-05-26 13:10,50.630445,-96.9807583333333,5.1,7.2,311,976.75,15.2,109,11.88,0.0,1002.90,270.0
2018-05-26 13:20,50.630445,-96.9807583333333,5.5,8.4,313,976.84,15.2,109,11.89,0.0,1003.00,270.0
2018-05-26 13:30,50.6304433333333,-96.9807566666667,5.9,8.7,316,976.94,15.3,109,11.85,0.0,1003.09,270.0
2018-05-26 13:40,50.6304433333333,-96.9807566666667,5.5,7.7,332,976.97,15.4,109,12.00,0.0,1003.12,270.0
2018-05-26 13:50,50.6304433333333,-96.9807566666667,5.0,7.6,319,977.20,15.5,109,12.00,0.0,1003.34,270.0
2018-05-26 14:00,50.6304383333333,-96.9807466666667,3.5,4.9,349,977.19,15.6,109,12.01,0.0,1003.32,90.0
2018-05-26 14:10,50.6304433333333,-96.9807566666667,3.9,5.3,6,977.31,15.3,109,11.95,0.0,1003.44,90.0
2018-05-26 14:20,50.6304466666667,-96.9807633333333,3.8,5.3,357,977.33,15.2,109,11.72,0.0,1003.46,90.0
2018-05-26 14:30,50.6304416666667,-96.980755,3.7,6.2,3,977.35,15.7,110,11.67,0.0,1003.44,90.0
2018-05-26 14:40,50.6304416666667,-96.9807533333333,2.8,4.3,355,977.49,15.8,110,11.76,0.0,1003.58,90.0
2018-05-26 14:50,50.63044,-96.9807533333333,3.0,5.1,354,977.60,16.0,110,11.72,0.0,1003.68,90.0
2018-05-26 15:00,50.6304383333333,-96.9807533333333,3.2,5.2,28,977.71,15.8,110,11.67,0.0,1003.79,131.7
2018-05-26 15:10,50.63044,-96.980755,4.5,5.7,37,977.76,15.3,110,11.77,0.0,1003.87,131.7
2018-05-26 15:20,50.63044,-96.980755,3.6,4.9,23,977.86,15.3,110,11.95,0.0,1003.96,131.7
2018-05-26 15:30,50.6304283333333,-96.98076,1.5,3.7,1,977.89,15.6,110,12.07,0.0,1003.97,131.7
2018-05-26 15:40,50.63044,-96.9807633333333,0.4,2.0,349,978.03,15.9,110,11.82,0.0,1004.10,131.7
2018-05-26 15:50,50.6304433333333,-96.980755,2.2,4.4,305,978.04,16.0,110,11.62,0.0,1004.10,131.7
2018-05-26 16:00,50.6304466666667,-96.980755,4.3,7.2,281,978.17,16.3,110,11.58,0.0,1004.24,360.0
2018-05-26 16:10,50.6304433333333,-96.9807566666667,2.9,5.5,287,978.21,16.6,110,11.53,0.0,1004.27,360.0
2018-05-26 16:20,50.6304466666667,-96.9807583333333,5.2,8.5,289,978.23,16.9,108,11.69,0.0,1004.25,360.0
2018-05-26 16:30,50.630445,-96.980755,4.9,7.9,278,978.23,17.1,103,11.85,0.0,1004.23,360.0
2018-05-26 16:40,50.63045,-96.9807733333333,4.9,7.8,270,978.22,16.9,103,11.78,0.0,1004.23,360.0
2018-05-26 16:50,50.6304516666667,-96.9807583333333,5.4,8.0,275,978.23,17.0,102,11.87,0.0,1004.24,360.0
2018-05-26 17:00,50.6304483333333,-96.9807566666667,4.2,8.3,298,978.29,17.3,101,12.03,0.0,1004.31,299.2
2018-05-26 17:10,50.6304466666667,-96.9807566666667,5.0,7.8,255,978.40,17.4,101,12.52,0.0,1004.42,299.2
2018-05-26 17:20,50.6304366666667,-96.9807283333333,4.1,6.7,315,978.37,17.6,100,12.54,0.0,1004.37,299.2
2018-05-26 17:30,50.6304483333333,-96.980795,2.5,5.7,291,978.35,17.8,100,12.41,0.0,1004.32,299.2
2018-05-26 17:40,50.6304383333333,-96.9807666666667,2.4,5.4,313,978.38,18.1,100,12.34,0.0,1004.34,299.2
2018-05-26 17:50,50.6304416666667,-96.9807666666667,4.4,7.8,275,978.44,18.2,100,12.32,0.0,1004.38,299.2
2018-05-26 18:00,50.63044,-96.9807666666667,4.3,7.6,344,978.37,18.6,100,12.36,0.0,1004.28,270.0
2018-05-26 18:10,50.63044,-96.980765,2.4,5.1,334,978.40,18.7,100,12.27,0.0,1004.29,270.0
2018-05-26 18:20,50.63044,-96.9807633333333,4.3,7.2,308,978.52,18.8,99,12.23,0.0,1004.40,270.0
2018-05-26 18:30,50.6304633333333,-96.9807516666667,4.5,7.3,324,978.51,19.1,98,12.16,0.0,1004.39,270.0
2018-05-26 18:40,50.6304383333333,-96.9807566666667,2.4,5.1,4,978.48,19.1,99,12.03,0.0,1004.35,270.0
2018-05-26 18:50,50.630435,-96.9807533333333,2.6,4.8,134,978.62,18.3,100,11.98,0.0,1004.51,270.0
2018-05-26 19:00,50.6304366666667,-96.980755,1.7,5.2,249,978.73,18.2,100,12.06,0.0,1004.63,360.0
2018-05-26 19:10,50.6304383333333,-96.9807566666667,5.6,9.4,284,978.72,19.2,95,11.98,0.0,1004.57,360.0
2018-05-26 19:20,50.6304383333333,-96.9807583333333,5.3,8.1,270,978.84,19.4,95,11.87,0.0,1004.67,360.0
2018-05-26 19:30,50.6304383333333,-96.9807583333333,6.1,10.1,284,978.93,19.5,93,11.69,0.0,1004.74,360.0
2018-05-26 19:40,50.63044,-96.9807583333333,5.6,8.3,291,978.91,19.7,90,11.76,0.0,1004.71,360.0
2018-05-26 19:50,50.63044,-96.9807583333333,5.2,8.5,307,978.98,19.8,88,11.71,0.0,1004.76,360.0
2018-05-26 20:00,50.63044,-96.9807583333333,4.4,8.6,319,978.99,19.9,85,11.71,0.0,1004.77,142.0
2018-05-26 20:10,50.63044,-96.9807583333333,5.2,8.3,294,978.94,20.0,84,11.75,0.0,1004.70,142.0
2018-05-26 20:20,50.63044,-96.9807583333333,5.4,8.3,294,978.86,20.1,81,12.03,0.0,1004.60,142.0
2018-05-26 20:30,50.63045,-96.9807716666667,3.9,7.3,338,978.78,20.2,79,12.33,0.0,1004.52,142.0
2018-05-26 20:40,50.6304783333333,-96.9808016666667,4.2,7.2,317,978.85,20.1,79,12.35,0.0,1004.62,142.0
2018-05-26 20:50,50.6304233333333,-96.9807466666667,2.6,5.3,274,979.00,20.1,78,12.30,0.0,1004.78,142.0
2018-05-26 21:00,50.6304366666667,-96.9807516666667,3.3,9.1,204,979.19,19.7,84,12.30,0.0,1004.95,125.3
2018-05-26 21:10,50.6304433333333,-96.980765,5.4,8.1,119,979.27,18.9,100,12.30,0.0,1005.05,125.3
2018-05-26 21:20,50.63044,-96.9807566666667,6.9,8.5,117,979.29,18.6,100,12.53,0.0,1005.09,125.3
2018-05-26 21:30,50.63044,-96.980755,6.9,7.6,113,979.35,17.9,101,12.47,0.0,1005.18,125.3
2018-05-26 21:40,50.63044,-96.9807566666667,7.2,7.7,124,979.38,18.0,101,12.55,0.0,1005.20,125.3
2018-05-26 21:50,50.63044,-96.9807566666667,6.0,7.5,122,979.34,17.8,102,12.53,0.0,1005.16,125.3
2018-05-26 22:00,50.63044,-96.9807566666667,6.3,7.3,121,979.30,18.0,102,12.54,0.0,1005.11,360.0
2018-05-26 22:10,50.63044,-96.9807566666667,7.1,8.2,120,979.27,18.0,102,12.39,0.0,1005.07,360.0
2018-05-26 22:20,50.6304483333333,-96.980765,7.3,8.2,128,979.26,17.7,102,12.19,0.0,1005.06,360.0
2018-05-26 22:30,50.6304583333333,-96.980805,7.0,8.5,139,979.44,17.6,102,12.08,0.0,1005.27,360.0
2018-05-26 22:40,50.6304333333333,-96.980755,8.2,8.7,117,979.28,18.4,101,12.21,0.0,1005.07,360.0
2018-05-26 22:50,50.6304383333333,-96.980755,8.4,8.9,113,979.13,18.6,100,12.30,0.0,1004.92,360.0
2018-05-26 23:00,50.6304416666667,-96.9807533333333,8.2,8.6,130,979.21,18.2,101,12.28,0.0,1005.05,90.0
2018-05-26 23:10,50.6304416666667,-96.9807533333333,7.9,8.6,133,979.16,18.1,101,12.41,0.0,1005.02,90.0
2018-05-26 23:20,50.6304416666667,-96.9807533333333,7.7,9.0,144,979.24,17.7,101,12.81,0.0,1005.15,90.0
2018-05-26 23:30,50.6304416666667,-96.98075,7.2,8.8,153,979.27,17.8,100,12.84,0.0,1005.18,90.0
